Terminal Aerodrome Forecast
Issued by NWS Columbia, SC

Home | Current Version | Previous Version | Text Only | Print | Product List | Glossary On
Versions: 1 2 3 4 5 6 7 8 9 10 11 12 13 14 15 16 17 18 19 20 21 22 23 24 25 26 27 28 29 30 31 32 33 34 35 36 37 38 39 40 41 42 43 44 45 46 47
000
FTUS42 KCAE 191100
TAFAGS
TAF
KAGS 191136Z 1912/2012 00000KT 5SM BR SCT250
      TEMPO 1912/1913 1SM BR
     FM191500 03003KT P6SM SCT200
     FM200000 VRB03KT P6SM OVC100
     FM200700 VRB03KT P6SM -RA OVC050=

USA.gov is the U.S. government's official web portal to all federal, state and local government web resources and services.